WX5HOT Weather Reports


Display with metric or nautical units.
time (UTC)temp
F
wind
direction
speed
MPH
gust
MPH
rain 1hr
in
rain 24hr
in
rain mn
in
humidity
%
barometer
mb
20260507033201 48 151 3.0 4.0 0.00 1.11 1.11 99 1066.3
20260507032658 48 309 5.0 7.0 0.00 1.11 1.11 99 1066.4
20260507032153 48 299 3.0 3.0 0.00 1.11 1.11 99 1066.4
20260507031651 48 313 1.0 2.0 0.00 1.11 1.11 99 1066.3
20260507031147 48 339 4.0 7.0 0.00 1.11 1.11 99 1066.4
20260507030644 48 183 2.0 3.0 0.00 1.11 1.11 99 1066.3
20260507030142 48 303 4.0 4.0 0.00 1.11 1.11 99 1066.2
20260507025639 48 249 4.0 6.0 0.00 1.11 1.11 99 1066.1
20260507025136 48 287 3.0 3.0 0.00 1.11 1.11 99 1066.0
20260507024634 48 284 2.0 3.0 0.00 1.11 1.11 99 1066.1
20260507024131 48 297 4.0 6.0 0.00 1.11 1.11 99 1065.7
20260507023626 48 215 1.0 1.0 0.00 1.11 1.11 99 1066.2
20260507023124 48 299 3.0 3.0 0.00 1.11 1.11 99 1065.7
20260507022621 48 317 2.0 3.0 0.00 1.11 1.11 99 1065.7
20260507022116 48 303 1.0 0.0 0.00 1.11 1.11 99 1065.9
20260507021613 48 303 2.0 3.0 0.00 1.11 1.11 99 1065.6
20260507021108 48 183 1.0 1.0 0.00 1.11 1.11 99 1065.6
20260507020607 48 314 2.0 2.0 0.00 1.11 1.11 99 1065.4
20260507015602 48 301 1.0 1.0 0.00 1.11 1.11 99 1065.3
20260507015058 48 297 2.0 3.0 0.00 1.11 1.11 99 1065.6
20260507014555 48 12 4.0 4.0 0.00 1.11 1.11 99 1065.3
20260507014050 48 305 2.0 3.0 0.00 1.11 1.11 99 1065.2
20260507013548 48 162 2.0 2.0 0.00 1.11 1.11 99 1065.5
20260507013045 48 168 3.0 3.0 0.00 1.11 1.11 99 1065.2
20260507012542 48 309 4.0 6.0 0.00 1.11 1.11 99 1064.9
20260507012038 48 304 3.0 6.0 0.00 1.11 1.11 99 1065.0
20260507011536 48 262 2.0 2.0 0.00 1.11 1.11 99 1065.2
20260507011031 48 301 1.0 2.0 0.00 1.11 1.11 99 1065.2
20260507010526 48 290 2.0 4.0 0.00 1.11 1.11 99 1065.3
20260507010023 48 296 4.0 4.0 0.00 1.11 1.11 99 1065.0
20260507005521 48 39 6.0 7.0 0.00 1.11 1.11 99 1064.8
20260507005017 48 283 6.0 8.0 0.00 1.11 1.11 99 1064.9
20260507004514 48 178 1.0 2.0 0.00 1.11 1.11 99 1064.7
20260507004011 48 96 4.0 6.0 0.00 1.11 1.11 99 1064.3
20260507003506 48 196 1.0 2.0 0.00 1.11 1.11 99 1064.4
20260507003001 48 286 3.0 4.0 0.00 1.11 1.11 99 1064.6
20260507002458 48 233 3.0 6.0 0.00 1.11 1.11 99 1064.7
20260507001955 48 309 4.0 4.0 0.00 1.11 1.11 99 1064.5
20260507001451 48 269 4.0 6.0 0.00 1.11 1.11 99 1064.5
20260507000949 48 289 2.0 3.0 0.00 1.11 1.11 99 1064.3
20260507000445 48 300 4.0 4.0 0.00 1.11 1.11 99 1064.4
20260506235940 48 265 3.0 4.0 0.00 1.11 1.11 99 1064.6
20260506235438 48 286 5.0 6.0 0.00 1.11 1.11 99 1064.7
20260506234933 48 1 3.0 4.0 0.00 1.11 1.11 99 1064.8
20260506234431 48 230 2.0 3.0 0.00 1.11 1.11 99 1064.9
20260506233929 48 252 5.0 6.0 0.00 1.11 1.11 99 1065.3
20260506233425 48 192 1.0 1.0 0.00 1.11 1.11 99 1065.1
20260506232921 48 226 2.0 2.0 0.00 1.11 1.11 99 1065.1
20260506232418 48 275 2.0 2.0 0.00 1.11 1.11 99 1065.0
20260506231914 48 232 2.0 2.0 0.00 1.11 1.11 99 1065.1
20260506231412 48 176 1.0 1.0 0.00 1.11 1.11 99 1065.2
20260506230909 48 204 2.0 2.0 0.00 1.11 1.11 99 1065.3
20260506230405 48 225 1.0 1.0 0.00 1.11 1.11 99 1065.2
20260506225901 47 247 2.0 3.0 0.00 1.11 1.11 99 1065.0
20260506225359 47 244 2.0 1.0 0.00 1.11 1.11 99 1064.7
20260506224856 47 293 6.0 10.0 0.00 1.11 1.11 99 1064.5
20260506224353 47 316 4.0 4.0 0.00 1.11 1.11 99 1064.1
20260506223849 48 334 2.0 2.0 0.00 1.11 1.11 99 1064.5
20260506223345 47 312 5.0 7.0 0.00 1.11 1.11 99 1064.2
20260506222842 47 29 4.0 6.0 0.00 1.11 1.11 99 1064.1
20260506222337 47 359 5.0 6.0 0.00 1.11 1.11 99 1064.2
20260506221835 47 106 4.0 7.0 0.00 1.11 1.11 99 1064.2
20260506221333 47 300 5.0 7.0 0.00 1.11 1.11 99 1064.0
20260506220830 47 345 4.0 7.0 0.00 1.11 1.11 99 1063.9
20260506220325 47 285 4.0 6.0 0.00 1.11 1.11 99 1064.0
20260506215823 47 302 5.0 8.0 0.00 1.11 1.11 99 1063.7
20260506215318 47 111 3.0 4.0 0.00 1.11 1.11 99 1063.9
20260506214814 47 243 3.0 4.0 0.00 1.11 1.11 99 1063.5
20260506214311 47 207 3.0 4.0 0.00 1.11 1.11 99 1063.4
20260506213810 47 287 5.0 7.0 0.00 1.11 1.11 99 1063.4
20260506213306 47 317 3.0 6.0 0.00 1.11 1.11 99 1063.5
20260506212804 47 285 4.0 4.0 0.00 1.11 1.11 99 1063.7
20260506212259 46 265 4.0 6.0 0.00 1.11 1.11 99 1064.0
20260506211754 47 53 4.0 7.0 0.00 1.11 1.11 99 1063.9
20260506211251 47 320 3.0 6.0 0.00 1.11 1.11 99 1064.0
20260506210748 46 163 4.0 6.0 0.00 1.11 1.11 99 1064.4
20260506210245 46 328 2.0 6.0 0.00 1.11 1.11 99 1064.3
20260506205742 46 251 4.0 6.0 0.00 1.11 1.11 99 1064.3
20260506205238 47 212 4.0 6.0 0.00 1.11 1.11 99 1064.0
20260506204735 46 79 2.0 2.0 0.00 1.11 1.11 99 1064.0
20260506204232 46 320 3.0 6.0 0.00 1.11 1.11 99 1063.6
20260506203730 46 54 5.0 9.0 0.00 1.11 1.11 99 1063.5
20260506203227 46 109 3.0 6.0 0.00 1.11 1.11 99 1063.3
20260506202724 46 273 7.0 9.0 0.00 1.11 1.11 99 1063.5
20260506202221 46 217 2.0 3.0 0.00 1.11 1.11 99 1064.0
20260506201718 46 306 7.0 10.0 0.00 1.11 1.11 99 1064.4
20260506201214 46 316 6.0 8.0 0.00 1.11 1.11 99 1064.4
20260506200711 46 101 7.0 11.0 0.00 1.11 1.11 99 1063.7
20260506200209 46 353 4.0 7.0 0.00 1.11 1.11 99 1063.9
20260506195705 45 140 6.0 10.0 0.00 1.11 1.11 99 1064.4
20260506195201 45 43 4.0 7.0 0.00 1.11 1.11 99 1064.1
20260506194658 46 100 3.0 4.0 0.00 1.11 1.11 99 1063.9
20260506194154 45 325 3.0 6.0 0.00 1.11 1.11 99 1063.9
20260506193652 45 7 9.0 10.0 0.00 1.11 1.11 99 1064.0
20260506193149 45 305 4.0 6.0 0.00 1.11 1.11 99 1064.1
20260506192646 45 3 6.0 11.0 0.00 1.11 1.11 99 1063.7
20260506192142 45 217 3.0 4.0 0.00 1.11 1.11 99 1064.4
20260506191639 45 316 2.0 3.0 0.00 1.11 1.11 99 1064.9
20260506191135 45 167 3.0 6.0 0.00 1.11 1.11 99 1064.3
20260506190633 45 156 2.0 2.0 0.00 1.11 1.11 99 1063.0
20260506190129 45 49 4.0 6.0 0.05 1.11 1.11 99 1063.0
20260506185627 44 86 5.0 10.0 0.05 1.11 1.11 99 1062.6
20260506185123 45 327 6.0 10.0 0.07 1.10 1.10 99 1063.7
20260506184620 45 286 5.0 7.0 0.19 1.10 1.10 99 1064.4
20260506184117 45 191 1.0 1.0 0.17 1.09 1.09 99 1065.9
20260506183614 45 199 1.0 1.0 0.17 1.07 1.07 99 1066.2
20260506183109 44 240 4.0 6.0 0.31 1.06 1.06 99 1065.3
20260506182608 44 1 3.0 3.0 0.26 1.04 1.04 99 1064.9
20260506182104 44 187 4.0 6.0 0.19 1.01 1.01 99 1065.2
20260506181602 44 355 7.0 13.0 0.12 1.00 1.00 99 1065.0
20260506181059 44 329 2.0 2.0 0.07 0.99 0.99 99 1065.5
20260506180555 44 176 2.0 3.0 0.00 0.98 0.98 99 1065.4
20260506180052 44 202 1.0 2.0 0.00 0.98 0.98 99 1064.7
20260506175548 44 57 2.0 3.0 0.05 0.98 0.98 99 1064.7
20260506175045 44 146 2.0 6.0 0.05 0.98 0.98 99 1065.5
20260506174544 44 75 2.0 2.0 0.00 0.97 0.97 99 1065.4
20260506174039 44 8 5.0 8.0 0.00 0.97 0.97 99 1065.3
20260506173537 44 19 5.0 8.0 0.07 0.97 0.97 99 1065.3
20260506173034 44 270 4.0 7.0 0.07 0.97 0.97 99 1065.6
20260506172531 44 320 5.0 6.0 0.00 0.96 0.96 99 1066.2
20260506172027 44 122 4.0 6.0 0.00 0.96 0.96 99 1066.3
20260506171525 44 144 2.0 2.0 0.00 0.96 0.96 99 1066.6
20260506171022 45 108 2.0 2.0 0.05 0.96 0.96 99 1065.9
20260506170520 44 298 2.0 2.0 0.05 0.96 0.96 99 1065.4
20260506170018 44 239 2.0 3.0 0.00 0.95 0.95 99 1065.6
20260506165516 44 270 4.0 6.0 0.00 0.95 0.95 99 1066.1
20260506165011 45 63 4.0 4.0 0.00 0.95 0.95 99 1065.5
20260506164508 44 235 5.0 8.0 0.12 0.95 0.95 99 1065.1
20260506164006 44 309 4.0 4.0 0.12 0.95 0.95 99 1065.2
20260506163501 44 256 5.0 9.0 0.00 0.93 0.93 99 1064.7
20260506162956 44 50 2.0 2.0 0.00 0.93 0.93 99 1065.1
20260506162454 44 49 6.0 9.0 0.00 0.93 0.93 99 1064.8
20260506161951 45 136 5.0 9.0 0.00 0.93 0.93 99 1064.7
20260506161449 45 356 5.0 7.0 0.00 0.93 0.93 99 1065.1
20260506160946 45 65 5.0 8.0 0.00 0.93 0.93 99 1065.6
20260506160443 45 275 4.0 4.0 0.00 0.93 0.93 99 1065.3
20260506155940 45 15 8.0 9.0 0.07 0.93 0.93 99 1065.1
20260506155439 44 138 2.0 2.0 0.07 0.93 0.93 99 1064.6
20260506153605 45 307 3.0 4.0 0.00 0.91 0.91 99 1064.7
20260506153102 45 275 6.0 8.0 0.00 0.91 0.91 99 1064.8
20260506152559 45 304 4.0 4.0 0.00 0.91 0.91 99 1064.9
20260506152057 45 250 3.0 3.0 0.00 0.91 0.91 99 1064.5
20260506151555 45 203 2.0 3.0 0.00 0.91 0.91 99 1064.0
20260506151052 45 257 4.0 7.0 0.00 0.91 0.91 99 1063.6
20260506150548 45 224 7.0 11.0 0.00 0.91 0.91 99 1063.5
20260506150045 44 283 6.0 8.0 0.00 0.91 0.91 99 1064.2
20260506145542 45 332 5.0 9.0 0.00 0.91 0.91 99 1064.4
20260506145039 45 138 6.0 11.0 0.00 0.91 0.91 99 1064.5
20260506144536 45 88 5.0 8.0 0.00 0.91 0.91 99 1064.3
20260506144033 45 319 6.0 8.0 0.07 0.91 0.91 99 1064.3
20260506143531 45 347 7.0 10.0 0.07 0.91 0.91 99 1064.4
20260506143029 45 40 6.0 10.0 0.00 0.90 0.90 99 1063.7
20260506142526 44 91 4.0 9.0 0.00 0.90 0.90 99 1063.7
20260506142024 44 227 5.0 7.0 0.00 0.90 0.90 99 1064.3
20260506141522 45 304 5.0 7.0 0.00 0.90 0.90 99 1064.3
20260506141020 45 278 4.0 4.0 0.00 0.90 0.90 99 1064.5
20260506140517 45 332 8.0 9.0 0.00 0.90 0.90 99 1064.2
20260506140015 45 243 3.0 4.0 0.00 0.90 0.90 99 1063.7
20260506135511 44 351 4.0 6.0 0.00 0.90 0.90 99 1063.4
20260506135007 44 359 3.0 4.0 0.00 0.90 0.90 99 1063.0
20260506134504 44 232 5.0 7.0 0.00 0.90 0.90 99 1063.3
20260506134000 45 234 9.0 16.0 0.00 0.90 0.90 99 1063.0
20260506133457 45 262 4.0 4.0 0.00 0.90 0.90 99 1063.1
20260506132954 45 349 6.0 11.0 0.00 0.90 0.90 99 1063.3
20260506132451 45 6 8.0 11.0 0.00 0.90 0.90 99 1063.2
20260506131948 45 201 5.0 9.0 0.00 0.90 0.90 99 1063.5
20260506131445 45 339 8.0 11.0 0.00 0.90 0.90 99 1063.2
20260506130942 46 65 6.0 9.0 0.00 0.90 0.90 99 1063.6
20260506130438 46 4 5.0 9.0 0.00 0.90 0.90 99 1063.2
20260506125936 46 317 7.0 10.0 0.00 0.90 0.90 99 1063.4
20260506125434 46 328 8.0 10.0 0.00 0.90 0.90 99 1063.6
20260506124932 46 257 3.0 6.0 0.00 0.90 0.90 99 1063.2
20260506124429 47 334 6.0 15.0 0.00 0.90 0.90 99 1063.1
20260506123927 47 295 5.0 7.0 0.05 0.90 0.90 99 1063.3
20260506123425 47 283 6.0 8.0 0.05 0.90 0.90 99 1062.9
20260506122922 47 312 6.0 7.0 0.00 0.89 0.89 99 1062.9
20260506122419 47 216 3.0 4.0 0.00 0.89 0.89 99 1062.8
20260506121918 47 338 9.0 11.0 0.00 0.89 0.89 99 1062.7
20260506121414 47 317 4.0 7.0 0.00 0.89 0.89 99 1062.3
20260506120911 48 61 4.0 6.0 0.00 0.89 0.89 99 1062.2
20260506120408 48 20 5.0 11.0 0.00 0.89 0.89 99 1062.1
20260506115906 48 260 3.0 4.0 0.00 0.89 0.89 99 1062.2
20260506115404 49 26 5.0 8.0 0.00 0.89 0.89 99 1061.7
20260506114902 49 265 4.0 8.0 0.00 0.89 0.89 99 1061.6
20260506114359 49 136 1.0 2.0 0.00 0.89 0.89 99 1061.4
20260506113858 49 327 4.0 7.0 0.07 0.89 0.89 99 1061.6
20260506113355 49 51 2.0 4.0 0.07 0.89 0.89 99 1061.4
20260506112851 50 356 6.0 8.0 0.00 0.88 0.88 99 1061.4
20260506112348 50 239 3.0 4.0 0.00 0.88 0.88 99 1060.9
20260506111846 50 220 3.0 4.0 0.00 0.88 0.88 99 1061.2
20260506111344 50 231 4.0 6.0 0.07 0.88 0.88 99 1061.2
20260506110841 50 323 4.0 6.0 0.07 0.88 0.88 99 1061.4
20260506110338 51 294 6.0 7.0 0.00 0.87 0.87 99 1060.7
20260506105835 51 209 3.0 3.0 0.00 0.87 0.87 99 1060.5
20260506105331 51 179 3.0 6.0 0.00 0.87 0.87 99 1060.8
20260506104829 51 95 2.0 2.0 0.00 0.87 0.87 99 1060.7
20260506104326 51 107 4.0 6.0 0.00 0.87 0.87 99 1060.5
20260506103824 51 311 3.0 4.0 0.00 0.87 0.87 99 1060.6
20260506103321 52 322 5.0 6.0 0.00 0.87 0.87 99 1060.4
20260506102819 52 315 4.0 9.0 0.00 0.87 0.87 99 1060.7
20260506102316 52 321 4.0 7.0 0.00 0.87 0.87 99 1059.9
20260506101814 53 355 5.0 6.0 0.00 0.87 0.87 99 1060.2
20260506101309 53 277 6.0 9.0 0.00 0.87 0.87 99 1059.6
20260506100808 53 294 4.0 4.0 0.05 0.87 0.87 99 1059.9
20260506100306 53 191 2.0 2.0 0.05 0.87 0.87 99 1060.3
20260506095804 53 329 4.0 6.0 0.00 0.86 0.86 99 1060.1
20260506095300 53 170 1.0 1.0 0.00 0.86 0.86 99 1060.2
20260506094757 54 256 2.0 3.0 0.00 0.86 0.86 99 1059.9
20260506094255 54 143 4.0 4.0 0.00 0.86 0.86 99 1060.1
20260506093754 54 6 6.0 8.0 0.00 0.86 0.86 99 1059.6
20260506093250 53 249 2.0 2.0 0.00 0.86 0.86 99 1059.4
20260506092749 53 70 2.0 2.0 0.00 0.86 0.86 99 1059.7
20260506092246 53 335 6.0 8.0 0.00 0.86 0.86 99 1059.5
20260506091743 53 319 5.0 8.0 0.00 0.86 0.86 99 1059.6
20260506091240 53 324 6.0 9.0 0.00 0.86 0.86 99 1059.7
20260506090738 53 314 6.0 9.0 0.00 0.86 0.86 99 1059.4
20260506090235 53 347 3.0 4.0 0.00 0.86 0.86 99 1059.2
20260506085732 54 301 5.0 7.0 0.00 0.86 0.86 99 1059.2
20260506085228 54 49 9.0 10.0 0.00 0.86 0.86 99 1059.2
20260506084725 54 226 6.0 8.0 0.00 0.86 0.86 99 1059.1
20260506084221 55 329 3.0 4.0 0.00 0.86 0.86 99 1058.8
20260506083718 55 328 7.0 9.0 0.00 0.86 0.86 99 1059.0
20260506083216 55 328 5.0 6.0 0.00 0.86 0.86 99 1059.4
20260506082713 56 307 4.0 7.0 0.00 0.86 0.86 99 1059.6
20260506082208 56 342 7.0 9.0 0.00 0.86 0.86 99 1059.4
20260506081706 57 185 2.0 4.0 0.00 0.86 0.86 99 1059.5
20260506081204 57 260 3.0 3.0 1.44 0.86 0.86 99 1059.4
20260506080701 56 200 1.0 1.0 1.63 0.86 0.86 99 1059.2
20260506080158 55 283 6.0 8.0 0.00 0.59 0.59 99 1060.8
20260506073142 56 325 6.0 10.0 2.88 0.49 0.49 99 1058.2
20260506072638 57 265 17.0 25.0 0.38 0.06 0.06 98 1060.7
20260506072136 57 15 6.0 8.0 0.07 0.01 0.01 98 1057.1
20260506071633 57 41 3.0 4.0 0.00 0.00 0.00 98 1056.6
20260506071131 58 296 5.0 6.0 0.00 0.00 0.00 98 1057.1
20260506070627 59 358 5.0 7.0 0.00 0.00 0.00 98 1057.6
20260506070125 59 322 2.0 3.0 0.00 0.00 0.00 98 1057.8
20260506062103 60 17 6.0 8.0 0.00 0.00 0.00 97 1058.3
20260506061558 61 249 3.0 3.0 0.00 0.00 0.00 97 1058.7
20260506061056 61 66 5.0 9.0 0.00 0.00 0.00 97 1058.5
20260506060554 62 354 4.0 4.0 0.00 0.00 0.00 97 1058.7
20260506051023 70 202 1.0 1.0 0.00 0.00 0.00 94 1058.6
20260506050521 70 213 2.0 2.0 0.00 0.00 0.00 93 1058.9
20260506045011 70 216 2.0 3.0 0.00 0.31 0.31 93 1058.7
20260506044509 70 195 2.0 3.0 0.00 0.31 0.31 93 1058.6
20260506044006 70 184 2.0 2.0 0.00 0.31 0.31 93 1058.8
20260506043502 70 188 2.0 3.0 0.00 0.31 0.31 94 1058.6
20260506043000 70 215 3.0 3.0 0.00 0.31 0.31 94 1058.6
20260506042500 70 184 2.0 2.0 0.00 0.31 0.31 94 1058.4
20260506041957 70 195 2.0 2.0 0.00 0.31 0.31 94 1058.3
20260506041455 70 167 2.0 3.0 0.00 0.31 0.31 94 1058.3
20260506040953 70 188 2.0 2.0 0.00 0.31 0.31 94 1058.0
20260506040450 71 185 4.0 4.0 0.00 0.31 0.31 93 1058.0
20260506035946 70 183 4.0 6.0 0.00 0.31 0.31 93 1058.3
20260506035443 70 188 4.0 4.0 0.00 0.31 0.31 94 1057.9
20260506034939 70 191 3.0 3.0 0.00 0.31 0.31 94 1058.0
20260506034438 70 188 5.0 6.0 0.00 0.31 0.31 94 1058.2
20260506033934 70 182 4.0 6.0 0.00 0.31 0.31 94 1058.4
20260506033432 70 187 4.0 6.0 0.00 0.31 0.31 93 1058.3